Weather History for Fort Polk, LA

Change the Weather History Date:

Tuesday, September 17, 2013

  Actual Average (KPOE) Record (KPOE)
Temperature  
Mean Temperature 83 °F -  
Max Temperature 95 °F 85 °F 96 °F (2004)
Min Temperature 71 °F 66 °F 57 °F (2000)
Cooling Degree Days 18    
Growing Degree Days 33 (Base 50)    
Moisture  
Dew Point 67 °F    
Average Humidity 63    
Maximum Humidity 91    
Minimum Humidity 33    
Precipitation  
Precipitation 0.00 in - - ()
Sea Level Pressure  
Sea Level Pressure 30.08 in    
Wind  
Wind Speed 1 mph (North)    
Max Wind Speed 5 mph    
Max Gust Speed -    
Visibility 10 miles    
Events      
Averages and records for this station are not official NWS values.
T = Trace of Precipitation, MM = Missing Value Source: NWS Daily Summary

Daily Weather History Graph

Daily Weather History Graph

Search for Another Location

Airport:

Trip Planner

Search our weather history database for the weather conditions in past years. The results will help you decide how hot, cold, wet, or windy it might be!

Date:

Astronomy

Sep. 17, 2013 Rise Set
Actual Time 6:57 AM CDT 7:14 PM CDT
Civil Twilight 6:32 AM CDT 7:38 PM CDT
Nautical Twilight 6:04 AM CDT 8:06 PM CDT
Astronomical Twilight 5:36 AM CDT 8:35 PM CDT
Moon 5:58 PM CDT (9/17) 4:57 AM CDT (9/17)
Length of Visible Light 13h 05m
Length of Day
12h 17m
Waxing Gibbous, 96% of the Moon is Illuminated
Sep 17
Waxing Gibbous
Sep 19
Full
Sep 26
Last Quarter
Oct 4
New
Oct 11
First Quarter

Hourly Weather History & Observations

Time (CDT) Temp. Heat Index Dew Point Humidity Pressure Visibility Wind Dir Wind Speed Gust Speed Precip Events Conditions
12:54 AM 73.9 °F - 66.9 °F 79% 30.11 in 10.0 mi Calm Calm - N/A   Clear
1:54 AM 73.0 °F - 68.0 °F 84% 30.10 in 10.0 mi Calm Calm - N/A   Clear
2:54 AM 72.0 °F - 68.0 °F 87% 30.10 in 10.0 mi Calm Calm - N/A   Clear
3:54 AM 72.0 °F - 68.0 °F 87% 30.09 in 10.0 mi Calm Calm - N/A   Clear
4:54 AM 71.1 °F - 66.9 °F 87% 30.09 in 10.0 mi Calm Calm - N/A   Clear
5:54 AM 71.1 °F - 66.9 °F 87% 30.10 in 9.0 mi Calm Calm - N/A   Clear
6:54 AM 71.1 °F - 66.9 °F 87% 30.11 in 6.0 mi Calm Calm - N/A   Clear
7:54 AM 72.0 °F - 69.1 °F 91% 30.13 in 7.0 mi Calm Calm - N/A   Clear
8:54 AM 81.0 °F 84.9 °F 71.1 °F 72% 30.14 in 10.0 mi Calm Calm - N/A   Clear
9:54 AM 86.0 °F 92.2 °F 72.0 °F 63% 30.15 in 10.0 mi Variable 3.5 mph - N/A   Clear
10:54 AM 88.0 °F 93.8 °F 71.1 °F 57% 30.15 in 10.0 mi Variable 3.5 mph - N/A   Clear
11:54 AM 89.1 °F 92.9 °F 68.0 °F 50% 30.13 in 10.0 mi Variable 3.5 mph - N/A   Scattered Clouds
12:54 PM 91.0 °F 95.2 °F 68.0 °F 47% 30.11 in 10.0 mi Calm Calm - N/A   Scattered Clouds
1:54 PM 93.9 °F 96.1 °F 64.9 °F 38% 30.07 in 10.0 mi Calm Calm - N/A   Scattered Clouds
2:54 PM 93.9 °F 95.2 °F 63.0 °F 36% 30.04 in 10.0 mi Calm Calm - N/A   Partly Cloudy
3:54 PM 95.0 °F 95.6 °F 62.1 °F 33% 30.02 in 10.0 mi Variable 4.6 mph - N/A   Partly Cloudy
4:54 PM 95.0 °F 95.6 °F 62.1 °F 33% 30.01 in 10.0 mi Variable 4.6 mph - N/A   Clear
5:54 PM 93.9 °F 94.8 °F 62.1 °F 35% 30.00 in 10.0 mi Variable 3.5 mph - N/A   Partly Cloudy
6:54 PM 87.1 °F 88.9 °F 64.9 °F 48% 30.01 in 10.0 mi Calm Calm - N/A   Clear
7:54 PM 81.0 °F 83.0 °F 66.0 °F 60% 30.03 in 10.0 mi Calm Calm - N/A   Clear
8:54 PM 79.0 °F - 64.9 °F 62% 30.05 in 10.0 mi Calm Calm - N/A   Clear
11:54 PM 79.0 °F - 66.9 °F 66% 30.07 in 10.0 mi Calm Calm - N/A   Clear